Tracking 31027 objects as of 19-Jul-2025
HD Live streaming from Space Station
objects crossing your sky now

FENGYUN 1C DEB

Track FENGYUN 1C DEB now!
10-day predictions


NORAD ID: 32192
Int'l Code: 1999-025CUN
Perigee: 829.7 km
Apogee: 1,095.5 km
Inclination: 98.7 °
Period: 104.2 minutes
Semi major axis: 7333 km
RCS: 0.0039 m2 (small)
Launch date: May 10, 1999
Source: People's Republic of China (PRC)
Launch site: Taiyaun Space Center, China (TSC)

Note: This is SATELLITE DEBRIS
Your satellite tracking list
TITAN 3C TRANSTAGE DEB
Track 1 satellite(s)




NASA's NSSDC Master Catalog

Two Line Element Set (TLE):
1 32192U 99025CUN 25198.13278433  .00000190  00000-0  18740-3 0  9991
2 32192  98.6747  80.8506 0181197 205.3288 153.8902 13.82369828906599
Source of the keplerian elements: AFSPC